Malmo

Airport
ICAO code: 
ESMS
Summary
ICAO Region: 
EUR
Territory: 
Location: 
Malmo,
Elevation: 
236 ft
Coordinates: 
Aerial View: 
55° 32' 10.699" N, 13° 22' 34.312" E
Metar
Observation
ESMS 251320Z 21015KT 9999 SCT035 16/09 Q1011
Station
Malmo / Sturup
Date/Time
2022-05-25 13:20:00
Wind direction
210°
Wind speed
15 kts
Lowest cloud amount
scattered clouds
Temperature
16°C
Dew point
9°C
Humidity
63%
QNH
1011 hPa
Weather condition
n/a

Description

International airport serving Malmo, southwest Sweden.

Climatology

Temperate Marine climate/Oceanic climate (Köppen climate classification Cfb). Moderately cool summer and comparatively warm winter.

Runways

Designator Length Width Surface Rops
11/29 797 23 ASP Yes/Yes
17/35 2800 45 ASP Yes/Yes
Airport map: 
Aerial View: 

Accidents and Serious Incidents at or in the vicinity of ESMS

SKYbrary Partners:

Safety knowledge contributed by: